{"data":{"norad_id":59512,"epoch":"2026-05-24T23:45:41.550336Z","epoch_age_seconds":72977,"freshness":"FRESH","line1":"1 59512U 24073B   26144.99006424 -.00000225  00000+0  13470-5 0  9998","line2":"2 59512  43.0016 247.2125 0000512 316.5921  43.4890 15.27570547117848","mean_motion":15.27570547,"eccentricity":5.12e-5,"inclination_deg":43.0016,"raan_deg":247.2125,"arg_perigee_deg":316.5921,"mean_anomaly_deg":43.489,"bstar":1.347e-6,"rev_number":11784,"period_min":94.267332060573,"perigee_km":482.72610769094,"apogee_km":483.4286960457,"semimajor_km":6861.2144018683,"source":"CELESTRAK","updated_at":"2026-05-25T13:38:18.974044Z"}}